Regional Weather Roundup
Issued by NWS

Home | Current Version | Previous Version | Text Only | Print | Product List | Glossary On
Versions: 1 2 3 4 5 6 7 8 9 10 11 12 13 14 15 16 17 18 19 20 21 22 23 24 25 26 27 28 29 30 31 32 33 34 35 36 37 38 39 40 41 42 43 44 45 46 47 48 49 50
000
ASUS43 KDTX 310210
RWRMI
MICHIGAN HOURLY REGIONAL WEATHER ROUNDUP
NATIONAL WEATHER SERVICE DETROIT/PONTIAC MI
900 PM EST FRI JAN 30 2015

NOTE: "FAIR" INDICATES FEW OR NO CLOUDS BELOW 12,000 FEET WITH NO
SIGNIFICANT WEATHER AND/OR OBSTRUCTION TO VISIBILITY.

MIZ047>049-052>055-059>063-066>070-074>076-081>083-310300-
SOUTHEAST LOWER MICHIGAN

CITY           SKY/WX    TMP DP  RH WIND       PRES   REMARKS
ADRIAN         CLEAR     14   8  77 CALM      30.42F
ALMA           CLOUDY    14  10  82 CALM      30.40R
ANN ARBOR        N/A      8   4  83 CALM      30.41F
BAD AXE        MOCLDY     2  -1  85 CALM      30.40F
DETROIT CITY   CLEAR     13   1  59 S3        30.43F
DETROIT        PTCLDY    13   3  64 E5        30.44S
FLINT          MOCLDY    11   4  73 S3        30.40F
GROSSE ILE     CLEAR     10   1  67 E3        30.43S
HILLSDALE      CLEAR     12   5  72 CALM      30.38S
HOWELL         PTCLDY    12   6  76 CALM      30.39F

CITY           SKY/WX    TMP DP  RH WIND       PRES   REMARKS
JACKSON        PTCLDY    12   6  77 CALM      30.39F
LAMBERTVILLE   CLEAR     16   9  73 CALM      30.43F
LANSING        PTCLDY    18   9  68 W7        30.40F
LAPEER         NOT AVBL
MASON          PTCLDY    12   8  81 CALM      30.40F
MONROE         MOCLDY    14   7  73 CALM      30.42F
MT. CLEMENS    PTCLDY     5  -1  76 S6        30.40F
PONTIAC        PTCLDY    10   3  73 CALM      30.39S
PORT HOPE        N/A     10  -1  61 SW6       30.39S
PORT HURON     PTCLDY    -2  -6  84 CALM      30.42F
TRI CITIES     MOCLDY    16   7  67 CALM      30.40F
YPSILANTI      CLEAR     15   4  61 E7        30.43S
$$
MIZ043>046-050>051-056>058-064>065-071>073-077>080-310300-
SOUTHWEST LOWER MICHIGAN

CITY           SKY/WX    TMP DP  RH WIND       PRES   REMARKS
BATTLE CREEK   CLOUDY    21  12  68 W6        30.41R
BENTON HARBOR  MOCLDY    17  14  88 SE3       30.42F
BIG RAPIDS       N/A     13   8  79 CALM      30.35F
COLDWATER        N/A     16  10  76 W5        30.40S
HOLLAND        PTCLDY    23  14  68 SW3       30.40F
GRAND RAPIDS   MOCLDY    20  11  68 CALM      30.39F
KALAMAZOO      CLOUDY    22  13  68 W5        30.41S
MARSHALL       CLOUDY    12   7  79 CALM      30.40S
MUSKEGON       PTCLDY    20  10  65 CALM      30.41F
$$
MIZ016>042-310300-
NORTHERN LOWER MICHIGAN

CITY           SKY/WX    TMP DP  RH WIND       PRES   REMARKS
ALPENA         CLOUDY     7   2  80 S3        30.36F
BEAVER ISLAND  MOCLDY    16   8  69 CALM      30.33F
CADILLAC       PTCLDY    10   6  82 SW3       30.30F
CHARLEVOIX     CLOUDY    18  10  71 W7        30.37F
FRANKFORT      MOCLDY    19  12  75 CALM      30.35F
GAYLORD        CLOUDY    13   8  81 SW6       30.29F
GRAYLING       CLOUDY    15   7  73 SW3       30.33F
HARBOR SPRINGS CLOUDY    14   9  80 CALM      30.34F
HOUGHTON LAKE  MOCLDY    13   6  74 CALM      30.33F
MANISTEE       MOCLDY    12   7  79 E3        30.37F
OSCODA         MOCLDY     7  -1  70 CALM      30.38F
PELLSTON       CLOUDY    15   8  73 CALM      30.34F
TRAVERSE CITY  MOCLDY    15   7  70 CALM      30.36F
$$
MIZ007>008-015-310300-
EASTERN UPPER MICHIGAN

CITY           SKY/WX    TMP DP  RH WIND       PRES   REMARKS
KINROSS        CLOUDY    12   9  85 SW3       30.31F
MACKINAC ISLAN CLOUDY    16   8  70 W6        30.33F
NEWBERRY       MOCLDY     4   2  94 S3        30.30F
S. S. MARIE    CLOUDY     9   1  70 SE3       30.31F
$$
MIZ004>006-011>014-085-310300-
CENTRAL UPPER MICHIGAN

CITY           SKY/WX    TMP DP  RH WIND       PRES   REMARKS
MANISTIQUE     PTCLDY    16   4  60 SW3       30.31F
ESCANABA       CLEAR     14   7  73 SW7       30.31F
MENOMINEE      CLOUDY    18   9  68 SW6       30.31F
SAWYER-GWINN   CLOUDY    12   3  67 S7        30.23F
$$
MIZ001>003-009>011-084-310300-
WESTERN UPPER MICHIGAN

CITY           SKY/WX    TMP DP  RH WIND       PRES   REMARKS
IRON MOUNTAIN  CLOUDY    17   4  56 S5        30.24F
HOUGHTON       MOCLDY    11   4  73 SW3       30.20F
COPPER HARBOR    N/A     16   7  67 W6        30.24F
IRONWOOD       CLOUDY    18   3  53 S8        30.16F
$$

ABBREVIATIONS USED IN REMARKS
   TC - TEMPERATURE IN CELSIUS
  WCI - WIND CHILL INDEX
   HX - HEAT INDEX
  VSB - VISIBILITY



USA.gov is the U.S. government's official web portal to all federal, state and local government web resources and services.